Preview of NWS' New Version of Forecast
This preview is not operational and should not be used for support decisions.

Regional Weather Roundup (RWR)

Issued by Gray - Portland, ME (GYX)

                            
000
ASUS41 KGYX 201705
RWRGYX
WEATHER ROUNDUP FOR MAINE AND NEW HAMPSHIRE
NATIONAL WEATHER SERVICE GRAY ME
1200 PM EST SUN JAN 20 2019

MEZ002-005-006-010-012-015-018-020-021-024-026-027-029-201800-
MAINE
  
CITY           SKY/WX    TMP DP  RH WIND       PRES   REMARKS
PORTLAND       LGTSLEET   9   5  84 NW15G22   29.48F VSB 1/2 WCI  -8  
SANFORD        SNOW       9   6  88 N13G29    29.43F VSB 1/2 WCI  -7  
BAR HARBOR     LGT SNOW  13  10  88 NE18G25   29.54F FOG     WCI  -4  
WISCASSET      LGT SNOW   8   4  83 N8        29.49F VSB 1            
ROCKLAND       MIX PCPN  19  17  92 NE22G33   29.44F VSB 3/4 WCI   2  
FRYEBURG       SNOW      11   8  88 N9        29.49F VSB 1/2          
LEWISTONAUBURN SNOW       6   3  87 N17G25    29.49F VSB 1/2 WCI -13  
AUGUSTA        SNOW       5   1  83 N23G44    29.53F VSB 1/4 WCI -17  
WATERVILLE     LGT SNOW N/A N/A N/A MISG        N/A  VSB 3/4          
BANGOR         LGTSLEET   8   3  80 NE20G25   29.59F VSB 3/4 WCI -11  
GREENVILLE       N/A     -3 -10  72 NW8       29.53F                  
MILLINOCKET    HVY SNOW  -1  -7  75 NE8       29.73F VSB 1/4          
HOULTON        SNOW       4   0  83 NE21G26   29.76F VSB<1/4 WCI -17  
PRESQUE ISLE   HVY SNOW  -1  -6  79 N14       29.88F VSB 1/4 WCI -20  
FRENCHVILLE    LGT SNOW  -1  -9  68 NE13G21   29.88F VSB 3/4 WCI -19  
CARIBOU        HVY SNOW  -3  -9  75 N15       29.87F VSB<1/4 WCI -23  
$$

NHZ002-005-008-009-011-012-014-201800-
NEW HAMPSHIRE
  
CITY           SKY/WX    TMP DP  RH WIND       PRES   REMARKS
PORTSMOUTH     LGTSLEET  12   8  82 N8        29.39F VSB 3/4          
ROCHESTER      BLWGSNOW  12   8  84 N14G22    29.40F VSB 1   WCI  -3  
NASHUA         LGT SNOW  16  15  96 NW5       29.41F VSB 3/4          
MANCHESTER     LGTSLEET  17  13  84 N5        29.39F VSB 3/4          
CONCORD        MIX PCPN  14  10  84 N6        29.39F FOG              
LACONIA        LGT SNOW  12   9  85 NE22G29   29.36F VSB 1   WCI  -7  
PLYMOUTH       LGT SNOW  20  15  83 SE7       29.37F                  
BERLIN         SNOW      10   6  84 NW6       29.44F VSB 1/4          
WHITEFIELD     LGT SNOW  18  13  80 E14G23    29.35F WCI   4          
JAFFREY        LGT SNOW  12  10  92 VRB3      29.31F VSB 1            
KEENE          FLURRIES  17  13  84 N9        29.35F                  
LEBANON        SNOW      15   9  76 NW12      29.40F VSB 1/2 WCI   2  
MT WASHINGTON  SLEET     16  16 100 S40G48      N/A  VSB 1/8 WCI  -7  
$$

VTZ005-007-008-201800-
VERMONT
  
CITY           SKY/WX    TMP DP  RH WIND       PRES   REMARKS
ST JOHNSBURY     N/A     17  15  92 MISG      29.38F                  
MONTPELIER     SNOW      10   8  92 NW9       29.44F VSB 1/2          
BURLINGTON     HVY SNOW   3  -2  79 N15       29.55F VSB 1/8 WCI -16  
$$

MAZ007-012-024-CTZ003-RIZ002-NYZ038-NYZ072-201800-
SOUTHERN NEW ENGLAND AND NY
  
CITY           SKY/WX    TMP DP  RH WIND       PRES   REMARKS
BOSTON         LGTSLEET  24  20  84 N8        29.40F FOG              
WORCESTER      MIX PCPN  16  15  96 NE14      29.27F VSB 1/2 WCI   2  
NANTUCKET      RAIN      49  49 100 S23G31    29.33F FOG              
PROVIDENCE     RAIN      32  31  96 NE10      29.32F FOG              
HARTFORD       FRZ RAIN  21  18  88 N16       29.27F WCI   7          
ALBANY         SNOW      19  14  81 NW9       29.49R VSB 1/2          
NEW YORK CITY  LGT RAIN  39  36  89 NW15      29.25F                  
$$

ANZ081-ANZ082-ANZ150-NHZ014-MEZ023>029-201800-
COASTAL MARINE OBSERVATIONS
  
STATION/POSITION TIME  TEMP    WIND        PRES    WAVE
                       AIR SEA DIR/SP/G            HT/PER
                 (UTC) (F)     (DEG/KT/KT) (MB)    (FT/S)
MOUNT DESERT ROC 1600   38      50/ 24/ 29  999.6F
MATINICUS ROCK   1600   36      40/ 37/ 42  997.4F
ISLE OF SHOALS   1600   17      10/ 30/ 35  996.9F
JEFFREYS LEDGE   1608      42                N/A    13/ 8
CASHES LEDGE BUO 1650   46 40               993.0F  13/10
$$

.............KEY..............
   WCI - WIND CHILL
   TC  - TEMPERATURE IN CELSIUS
   VSB - VISIBILITY IN MILES
   HX  - HEAT INDEX
   FAIR- INDICATES FEW OR NO CLOUDS BELOW 12,000 FT, WITH NO 
         SIGNIFICANT WEATHER AND/OR OBSTRUCTIONS TO VISIBILITY.